Dumas, TX

3:42 AM CDT on June 27, 2017 (GMT -0500)
Moore County

Weather History for KDUX - June, 2013

Change the Weather History Date:

Friday, June 7, 2013

  Actual Average (KDHT) Record (KDHT)
Temperature  
Mean Temperature 70 °F -  
Max Temperature 86 °F 83 °F 102 °F (2008)
Min Temperature 54 °F 55 °F 45 °F (2007)
Cooling Degree Days 4    
Growing Degree Days 20 (Base 50)    
Moisture  
Dew Point 52 °F    
Average Humidity 58    
Maximum Humidity 97    
Minimum Humidity 27    
Precipitation  
Precipitation 0.53 in - - ()
Sea Level Pressure  
Sea Level Pressure 30.01 in    
Wind  
Wind Speed 11 mph (South)    
Max Wind Speed 48 mph    
Max Gust Speed 81 mph    
Visibility 9 miles    
Events Rain    
Averages and records for this station are not official NWS values.
T = Trace of Precipitation, MM = Missing Value Source: NWS Daily Summary

Daily Weather History Graph

Daily Weather History Graph

Search for Another Location

Airport or City:

Trip Planner

Search our weather history database for the weather conditions in past years. The results will help you decide how hot, cold, wet, or windy it might be!

Date:

Astronomy

Jun. 07, 2013 Rise Set
Actual Time 6:31 AM CDT 9:02 PM CDT
Civil Twilight 6:01 AM CDT 9:32 PM CDT
Nautical Twilight 5:24 AM CDT 10:09 PM CDT
Astronomical Twilight 4:43 AM CDT 10:50 PM CDT
Moon 5:53 AM CDT (6/7) 8:20 PM CDT (6/7)
Length of Visible Light 15h 31m
Length of Day
14h 31m
Waning Crescent, 1% of the Moon is Illuminated
Jun 7
Waning Crescent
Jun 8
New
Jun 16
First Quarter
Jun 23
Full
Jun 29
Last Quarter

Hourly Weather History & Observations

Time (CDT) Temp. Dew Point Humidity Pressure Visibility Wind Dir Wind Speed Gust Speed Precip Events Conditions
12:15 AM 64.9 °F 46.4 °F 51% 30.11 in 10.0 mi South 6.9 mph - N/A   Scattered Clouds
12:35 AM 66.9 °F 50.7 °F 56% 30.11 in 10.0 mi SSE 6.9 mph - N/A   Scattered Clouds
12:55 AM 67.5 °F 50.2 °F 54% 30.11 in 10.0 mi South 4.6 mph - N/A   Scattered Clouds
1:15 AM 65.5 °F 50.0 °F 57% 30.10 in 10.0 mi Calm Calm - N/A   Clear
1:35 AM 63.7 °F 50.0 °F 61% 30.10 in 10.0 mi SSE 4.6 mph - N/A   Clear
1:55 AM 63.0 °F 49.6 °F 62% 30.08 in 10.0 mi SE 5.8 mph - N/A   Clear
2:15 AM 61.5 °F 51.1 °F 69% 30.08 in 10.0 mi SE 8.1 mph - N/A   Clear
2:35 AM 61.3 °F 50.0 °F 66% 30.07 in 10.0 mi South 8.1 mph - N/A   Clear
2:55 AM 60.4 °F 50.2 °F 69% 30.07 in 10.0 mi SSE 5.8 mph - N/A   Clear
3:15 AM 59.7 °F 49.5 °F 69% 30.07 in 10.0 mi South 8.1 mph - N/A   Clear
3:35 AM 61.3 °F 52.7 °F 73% 30.06 in 10.0 mi South 8.1 mph - N/A   Clear
3:55 AM 61.0 °F 53.1 °F 75% 30.05 in 10.0 mi SSE 6.9 mph - N/A   Clear
4:15 AM 61.3 °F 54.0 °F 77% 30.05 in 10.0 mi SSE 6.9 mph - N/A   Clear
4:35 AM 61.0 °F 54.0 °F 78% 30.05 in 10.0 mi SE 8.1 mph - N/A   Clear
4:55 AM 61.2 °F 54.5 °F 79% 30.05 in 10.0 mi SSE 8.1 mph - N/A   Clear
5:15 AM 59.4 °F 53.4 °F 81% 30.06 in 10.0 mi SE 3.5 mph - N/A   Clear
5:35 AM 59.0 °F 53.4 °F 82% 30.06 in 10.0 mi SE 3.5 mph - N/A   Clear
5:55 AM 57.9 °F 53.6 °F 86% 30.06 in 10.0 mi SSE 5.8 mph - N/A   Clear
6:15 AM 57.2 °F 52.2 °F 83% 30.06 in 10.0 mi South 5.8 mph - N/A   Clear
6:35 AM 56.7 °F 52.5 °F 86% 30.06 in 10.0 mi South 5.8 mph - N/A   Clear
6:55 AM 56.8 °F 53.1 °F 87% 30.06 in 10.0 mi SE 4.6 mph - N/A   Clear
7:15 AM 56.7 °F 52.7 °F 87% 30.06 in 10.0 mi SE 4.6 mph - N/A   Clear
7:35 AM 59.7 °F 54.5 °F 83% 30.06 in 10.0 mi SE 5.8 mph - N/A   Clear
7:55 AM 63.1 °F 56.3 °F 78% 30.06 in 10.0 mi SSE 8.1 mph - N/A   Clear
8:15 AM 64.8 °F 57.2 °F 76% 30.06 in 10.0 mi South 10.4 mph - N/A   Clear
8:35 AM 67.3 °F 57.7 °F 71% 30.06 in 10.0 mi South 10.4 mph - N/A   Clear
8:55 AM 69.6 °F 58.1 °F 67% 30.06 in 10.0 mi South 12.7 mph 16.1 mph N/A   Clear
9:15 AM 70.9 °F 57.6 °F 63% 30.06 in 10.0 mi SSW 11.5 mph 17.3 mph N/A   Clear
9:35 AM 72.9 °F 57.2 °F 58% 30.07 in 10.0 mi SSW 15.0 mph - N/A   Clear
9:55 AM 74.3 °F 55.9 °F 53% 30.06 in 10.0 mi SSW 15.0 mph - N/A   Clear
10:15 AM 75.6 °F 54.7 °F 48% 30.06 in 10.0 mi SSW 18.4 mph - N/A   Clear
10:35 AM 76.5 °F 54.5 °F 46% 30.05 in 10.0 mi SSW 15.0 mph 23.0 mph N/A   Clear
10:55 AM 78.3 °F 54.7 °F 44% 30.05 in 10.0 mi SW 15.0 mph 23.0 mph N/A   Clear
11:15 AM 79.0 °F 52.9 °F 40% 30.04 in 10.0 mi SW 15.0 mph 21.9 mph N/A   Clear
11:35 AM 79.2 °F 51.6 °F 38% 30.04 in 10.0 mi SSW 9.2 mph 17.3 mph N/A   Clear
11:55 AM 79.9 °F 51.3 °F 37% 30.03 in 10.0 mi WSW 8.1 mph 18.4 mph N/A   Clear
12:15 PM 81.5 °F 49.6 °F 33% 30.03 in 10.0 mi SSW 8.1 mph 17.3 mph N/A   Clear
12:35 PM 81.0 °F 47.8 °F 31% 30.03 in 10.0 mi SW 5.8 mph 9.2 mph N/A   Clear
12:55 PM 83.1 °F 48.2 °F 30% 30.02 in 10.0 mi SSW 8.1 mph - N/A   Clear
1:15 PM 83.3 °F 49.3 °F 31% 30.01 in 10.0 mi SW 12.7 mph 18.4 mph N/A   Clear
1:35 PM 83.7 °F 48.7 °F 30% 30.01 in 10.0 mi SW 12.7 mph 17.3 mph N/A   Clear
1:55 PM 84.0 °F 50.5 °F 31% 30.00 in 10.0 mi SW 15.0 mph 28.8 mph N/A   Clear
2:15 PM 84.6 °F 49.8 °F 30% 29.99 in 10.0 mi WSW 11.5 mph - N/A   Clear
2:35 PM 84.4 °F 49.5 °F 30% 29.98 in 10.0 mi SSW 13.8 mph 20.7 mph N/A   Clear
2:55 PM 85.3 °F 48.0 °F 27% 29.97 in 10.0 mi WSW 13.8 mph 20.7 mph N/A   Clear
3:15 PM 85.1 °F 51.4 °F 31% 29.96 in 10.0 mi SW 15.0 mph 27.6 mph N/A   Clear
3:35 PM 83.8 °F 51.6 °F 33% 29.95 in 10.0 mi SSW 23.0 mph 29.9 mph N/A   Clear
3:55 PM 85.5 °F 50.9 °F 30% 29.93 in 10.0 mi SW 18.4 mph 28.8 mph N/A   Clear
4:15 PM 85.3 °F 52.0 °F 32% 29.92 in 10.0 mi SSW 18.4 mph 29.9 mph N/A   Clear
4:35 PM 85.3 °F 52.7 °F 33% 29.92 in 10.0 mi South 20.7 mph 29.9 mph N/A   Clear
4:55 PM 83.5 °F 51.4 °F 33% 29.91 in 10.0 mi SSW 19.6 mph 31.1 mph N/A   Clear
5:15 PM 83.3 °F 50.0 °F 31% 29.90 in 10.0 mi SW 20.7 mph 27.6 mph N/A   Clear
5:35 PM 82.8 °F 49.8 °F 32% 29.91 in 10.0 mi SW 25.3 mph 31.1 mph N/A   Clear
5:55 PM 82.2 °F 49.8 °F 32% 29.91 in 10.0 mi SSW 25.3 mph 29.9 mph N/A   Clear
6:15 PM 81.5 °F 49.5 °F 33% 29.90 in 10.0 mi SW 24.2 mph 27.6 mph N/A   Clear
6:35 PM 80.8 °F 50.0 °F 34% 29.91 in 10.0 mi SSW 19.6 mph - N/A   Clear
6:55 PM 80.2 °F 49.1 °F 34% 29.92 in 10.0 mi SSW 18.4 mph 24.2 mph N/A   Clear
7:15 PM 79.9 °F 49.1 °F 34% 29.92 in 10.0 mi South 16.1 mph 23.0 mph N/A   Clear
7:35 PM 79.2 °F 49.5 °F 35% 29.91 in 10.0 mi South 19.6 mph 24.2 mph N/A   Scattered Clouds
7:55 PM 78.4 °F 50.4 °F 37% 29.91 in 10.0 mi South 21.9 mph 26.5 mph N/A   Scattered Clouds
8:15 PM 77.9 °F 49.3 °F 37% 29.90 in 10.0 mi South 17.3 mph 27.6 mph N/A   Clear
8:35 PM 77.2 °F 47.7 °F 35% 29.91 in 10.0 mi South 19.6 mph 24.2 mph N/A   Clear
8:55 PM 64.8 °F 53.6 °F 67% 29.93 in 2.0 mi North 48.3 mph 80.6 mph N/A Rain Light Rain
9:15 PM 54.3 °F 53.4 °F 97% 30.03 in 0.8 mi NNE 6.9 mph 61.0 mph 0.29 in Rain Heavy Rain
9:35 PM 57.4 °F 56.5 °F 97% 30.03 in 5.0 mi NNE 20.7 mph 28.8 mph 0.41 in Rain Rain
9:55 PM 58.1 °F 56.8 °F 96% 30.03 in 5.0 mi ENE 19.6 mph 25.3 mph 0.44 in Rain Light Rain
10:15 PM 58.3 °F 57.2 °F 96% 30.03 in 7.0 mi East 17.3 mph - 0.01 in Rain Light Rain
10:35 PM 59.0 °F 58.1 °F 97% 30.04 in 7.0 mi East 15.0 mph - 0.03 in Rain Rain
10:55 PM 58.5 °F 57.7 °F 97% 30.01 in 5.0 mi ESE 21.9 mph 26.5 mph 0.08 in Rain Heavy Rain
11:15 PM 59.0 °F 58.1 °F 97% 29.98 in 7.0 mi ESE 24.2 mph 33.4 mph 0.01 in Rain Light Rain
11:35 PM 58.1 °F 56.5 °F 94% 29.96 in 10.0 mi SE 29.9 mph 36.8 mph 0.01 in Rain Light Rain
11:55 PM 58.6 °F 55.4 °F 89% 30.00 in 10.0 mi SE 21.9 mph 26.5 mph 0.01 in   Scattered Clouds